Location: Newark
(52.3500°N, 175.9667°E)
Time: 23:55:44
(UTC+00:00)

N. Korean satellite - Pass Details

Date: 17 November 2019
Orbit: 456 x 506 km, 97.2° (Epoch: 06 December)

Event Time Altitude Azimuth Distance (km) Brightness Sun altitude
Rises 05:02:59 0° 163° (SSE) 2,558 10.3 -6.4°
Reaches altitude 10° 05:05:01 10° 162° (SSE) 1,689 9.4 -6.7°
Maximum altitude 05:08:40 82° 76° (ENE) 512 6.6 -7.2°
Drops below altitude 10° 05:12:23 10° 348° (NNW) 1,726 9.3 -7.8°
Sets 05:14:30 0° 348° (NNW) 2,620 10.2 -8.1°
